{"data":{"norad_id":59486,"intl_designator":"2024-071C","name":"STARLINK-31733","alt_names":[],"object_type":"PAYLOAD","status":"ACTIVE","operator":null,"country":"US","launch_date":"2024-04-13","launch_site_code":"AFETR","launch_vehicle":null,"mission":null,"orbit_class":"UNKNOWN","rcs_meters":null,"size_class":null,"mass_kg":null,"dimensions":null,"purposes":["comms"],"wikipedia_slug":null,"has_3d_model":false,"image_url":null,"decayed_at":null,"tle_current":{"epoch":"2026-09-21T03:48:16.831296Z","epoch_age_seconds":108151,"freshness":"FRESH","line1":"1 59486U 24071C   26264.15852814  .00000210  00000+0  17145-4 0  9994","line2":"2 59486  43.0026 315.5312 0001531 267.3953  92.6724 15.27577669138102","mean_motion":15.27577669,"eccentricity":0.0001531,"inclination_deg":43.0026,"raan_deg":315.5312,"arg_perigee_deg":267.3953,"mean_anomaly_deg":92.6724,"bstar":1.7145e-5,"rev_number":13810,"period_min":94.266892559556,"perigee_km":482.00562724118,"apogee_km":484.10652456102,"semimajor_km":6861.1930759011,"source":"CELESTRAK","updated_at":"2026-09-22T09:00:48.952432Z"}}}